Wind_Speed
14 14 14 15 15 15 14 14 14 14 15 15 17 18 20 21 21 22 22 22 22 22 23 23 23 23 23 23 22 21 20 19 19 20 18 13 17 20 18 15 15 14 13 11 10 8 5 5 4 5 8 9 9 6 2 1 5 4 7 5 7 18 10 9 12 13 15 15 13 14 13 15 17 14 15 13 12 13 11 7 9 8 5 10 12 14 15 14
14 14 14 15 16 15 14 14 14 14 14 15 16 17 19 19 20 21 21 21 21 21 22 22 22 22 22 22 21 19 18 18 18 18 13 12 19 20 16 15 15 15 14 12 11 9 8 9 6 4 5 5 2 2 2 4 7 5 5 1 8 9 5 7 13 15 15 14 13 12 12 15 15 15 16 15 17 17 13 12 13 11 9 11 12 13 13 13
14 14 14 14 15 16 15 14 15 14 14 15 15 16 17 18 19 19 19 19 20 20 21 21 21 21 20 19 19 18 17 16 16 15 12 16 21 17 16 16 15 15 14 14 12 11 12 11 7 4 5 3 4 7 5 5 5 4 1 5 10 9 10 11 13 14 13 13 13 12 12 12 10 13 17 17 18 17 11 10 11 9 11 14 14 14 14 14
15 14 14 14 15 16 16 15 15 15 15 15 15 15 16 17 17 18 18 18 19 20 20 20 20 19 18 17 16 16 15 14 15 14 12 16 19 16 16 17 16 16 15 15 14 14 15 13 11 9 10 9 8 9 8 3 0 1 3 6 11 13 14 10 10 13 13 12 13 12 11 8 8 12 16 17 15 13 9 5 5 6 11 15 16 16 16 15
15 14 14 14 14 15 16 15 15 15 15 15 15 15 15 16 16 17 17 17 18 18 19 18 17 16 15 14 14 13 12 11 13 13 13 15 17 17 17 17 18 16 17 17 16 16 15 15 15 11 12 14 14 10 10 4 3 4 3 6 11 13 14 12 12 14 12 12 13 14 14 13 13 12 13 14 13 11 9 6 5 5 10 13 16 16 16 17
15 15 14 14 14 15 16 16 15 15 15 15 15 15 15 15 16 16 16 16 17 17 17 15 14 13 13 13 12 11 12 11 8 6 10 16 16 17 18 19 19 18 19 19 18 19 16 16 18 14 12 15 14 10 7 4 3 8 11 10 12 13 14 14 12 12 12 13 15 15 13 11 10 13 13 11 12 12 10 6 6 6 9 11 13 15 16 16
15 15 14 14 14 14 15 16 16 15 15 15 15 15 15 15 15 15 15 16 16 16 15 13 11 11 11 12 12 12 13 13 9 2 7 17 17 18 20 20 21 20 20 20 21 21 19 18 19 13 10 12 7 5 7 5 5 9 11 10 11 11 11 11 12 15 13 12 14 12 9 7 7 13 16 13 14 14 13 7 5 6 7 8 10 12 13 14
16 15 14 14 14 14 15 16 16 15 15 15 15 15 15 15 15 15 15 15 16 15 13 11 10 10 11 12 13 14 11 9 14 8 5 15 19 19 21 22 22 22 20 22 23 23 21 20 18 10 10 13 7 6 9 7 8 8 8 11 12 11 11 12 15 16 12 11 14 15 14 12 10 13 16 17 17 15 14 8 4 6 8 8 10 10 12 12
16 15 14 14 14 14 15 15 16 15 15 15 15 15 15 15 15 14 14 15 15 15 12 11 10 11 11 12 13 14 11 10 16 13 7 12 18 20 22 22 22 22 21 23 26 25 23 20 16 8 5 8 10 8 9 8 11 14 13 13 10 9 10 10 12 13 13 15 17 16 15 13 13 16 17 18 18 16 13 7 5 7 9 10 10 10 11 11
17 16 15 14 14 14 15 15 16 15 15 15 15 15 14 15 15 14 14 15 15 14 12 11 10 11 11 12 14 14 13 12 13 13 10 11 17 20 22 23 23 23 22 25 28 27 24 19 15 9 6 7 7 3 6 9 14 17 14 11 11 9 9 11 13 14 14 13 10 8 11 12 14 16 17 17 16 14 10 5 6 8 10 10 10 10 10 11
18 17 15 15 14 14 15 15 15 15 15 15 15 16 14 14 14 14 14 15 15 14 12 11 10 11 11 13 13 13 13 10 7 8 10 12 16 19 21 23 24 24 24 27 28 27 24 17 12 12 12 10 8 4 3 11 14 13 11 13 13 11 12 12 12 13 11 6 6 9 14 12 12 15 17 16 13 11 8 4 6 8 9 9 10 11 10 9
19 18 16 15 15 15 16 16 16 15 15 14 15 16 15 14 13 13 14 15 15 14 12 11 11 11 12 13 10 11 13 10 8 8 10 11 14 17 20 22 25 26 26 28 28 25 23 16 9 9 12 12 12 8 5 10 11 10 15 16 14 13 12 7 8 12 10 8 10 15 18 13 11 13 14 13 12 12 7 6 8 8 9 8 10 12 9 8
19 18 17 16 16 16 17 17 16 16 15 14 15 16 16 14 12 12 13 15 15 14 12 12 11 11 12 11 8 13 15 12 10 11 12 12 14 17 20 22 26 27 27 29 27 24 21 11 5 12 16 14 11 11 9 9 14 16 15 15 15 15 10 7 12 12 11 14 11 11 19 16 10 11 13 14 14 13 9 11 12 10 10 7 9 12 8 8
19 19 18 18 17 17 18 18 17 16 15 14 14 16 16 15 13 11 12 13 14 14 13 12 11 11 12 9 9 15 17 16 14 12 13 14 16 18 20 23 27 28 27 29 27 25 18 4 10 18 16 15 9 11 12 12 19 18 13 12 14 16 13 11 14 11 12 16 9 7 17 16 9 9 14 17 16 14 13 14 13 12 11 7 8 11 8 9
20 20 19 19 18 18 19 19 18 17 16 14 14 15 16 14 12 11 11 12 13 14 13 12 11 10 10 7 9 15 17 19 18 14 14 16 17 18 20 24 27 28 27 28 28 25 13 7 16 16 16 19 12 11 12 16 20 17 14 13 15 16 14 14 13 11 13 16 9 7 16 16 9 7 10 18 18 15 16 16 15 14 11 6 9 10 9 11
21 20 20 20 19 20 20 21 19 17 16 15 14 14 16 14 11 12 11 10 12 13 13 13 11 10 9 8 11 14 15 17 17 14 16 18 18 17 19 24 28 28 27 28 26 19 11 11 17 17 15 16 13 11 12 17 18 19 17 15 18 15 12 16 15 12 12 14 9 7 14 16 12 10 6 15 19 15 17 18 15 16 13 6 9 10 10 11
22 21 21 20 20 20 21 21 21 18 16 15 14 13 15 12 9 10 10 10 11 11 14 14 10 9 8 6 6 10 10 12 15 15 17 20 18 17 18 24 28 27 26 25 21 16 10 11 17 19 16 16 16 16 16 19 18 20 20 16 19 16 11 14 15 14 10 10 9 6 13 17 15 14 7 12 18 14 16 18 15 16 15 8 9 10 10 10
23 22 22 21 20 20 21 22 22 19 15 15 14 13 13 9 6 8 11 11 10 10 14 13 10 9 5 2 6 7 7 8 12 16 18 20 18 15 17 25 27 23 21 20 18 17 11 12 18 19 17 17 18 21 20 23 21 21 21 17 21 21 16 15 15 15 11 11 12 7 13 17 14 13 7 10 15 10 11 13 15 17 14 9 9 9 9 9
23 23 22 22 21 20 20 21 22 20 15 13 14 13 11 7 5 8 10 10 9 10 13 13 12 9 5 4 7 5 3 5 10 17 18 19 19 15 15 23 25 21 20 19 19 18 13 15 21 23 21 19 17 19 20 22 21 21 21 19 24 25 22 22 18 16 15 14 14 9 13 18 15 13 11 11 12 8 7 9 13 16 13 10 10 9 8 9
23 23 23 22 21 20 19 20 22 20 16 12 12 12 9 8 8 7 11 13 12 13 13 14 16 12 11 8 4 4 3 7 12 16 18 19 21 18 16 21 22 20 22 22 19 17 14 17 23 26 25 21 16 15 19 22 23 25 23 20 24 26 26 26 19 18 20 15 16 14 14 19 18 16 16 15 14 12 10 10 11 13 11 10 11 10 9 8
24 23 22 22 22 20 19 19 20 20 16 12 11 10 8 8 11 12 15 19 16 14 15 16 19 16 11 11 11 5 7 12 14 15 18 19 21 21 22 22 23 23 24 22 18 16 17 20 26 27 23 21 17 15 20 22 23 28 27 22 25 28 28 28 21 22 21 16 19 19 11 18 20 16 18 18 17 17 15 13 12 11 9 9 11 11 9 9
24 23 22 22 21 20 19 19 20 19 15 12 11 8 6 7 13 15 18 25 20 14 16 18 21 19 12 13 17 10 12 18 17 17 19 19 23 24 25 25 25 25 24 23 21 20 22 24 26 26 22 20 17 18 23 23 22 24 24 24 28 28 25 27 23 20 23 19 21 18 11 18 19 15 20 19 18 21 18 15 15 13 10 10 11 11 11 11
24 23 22 21 20 19 19 18 20 18 13 12 9 4 3 4 10 12 15 26 24 15 17 21 22 18 14 18 16 12 20 24 20 21 21 21 25 25 24 26 26 25 24 26 27 26 26 27 26 23 21 21 20 20 22 23 25 25 22 21 25 27 23 27 25 19 24 23 19 18 17 20 17 15 21 19 17 20 20 17 17 16 13 11 11 10 12 12
24 23 22 21 20 19 18 19 19 16 12 9 3 3 4 2 6 10 14 25 29 18 17 22 24 21 19 18 9 13 26 26 20 23 24 24 27 26 24 24 25 26 26 27 29 27 26 25 25 25 24 22 23 22 21 24 27 26 23 21 17 26 26 29 29 23 25 22 19 23 21 22 22 18 23 22 17 19 21 20 19 19 17 15 14 11 12 13
24 23 22 21 20 18 17 19 18 15 11 7 8 10 10 7 6 12 16 23 29 20 15 20 26 26 21 16 9 18 28 24 20 23 24 27 28 26 24 23 25 28 27 27 27 27 26 23 23 27 28 25 24 24 23 24 26 25 23 23 21 21 21 29 34 28 25 22 25 28 18 18 27 23 23 24 20 21 22 22 22 21 19 19 19 15 13 15
23 23 22 21 20 18 16 18 17 14 10 10 13 14 12 11 11 14 15 19 27 23 15 19 25 26 23 20 16 20 25 24 22 22 24 29 30 26 24 24 27 28 25 26 25 27 27 24 24 26 27 26 25 26 25 22 24 24 20 21 25 24 16 26 37 31 30 27 28 31 18 16 28 28 27 27 26 25 23 24 25 23 22 22 22 20 17 17
22 22 22 21 21 20 16 15 17 14 11 13 15 14 11 10 11 12 11 12 17 17 12 19 22 21 23 25 24 23 23 21 22 24 26 29 29 28 25 24 28 27 24 24 26 28 28 26 26 25 27 28 27 27 25 22 25 24 19 17 20 23 19 24 38 31 28 23 23 32 25 20 28 29 29 31 30 28 27 27 27 26 24 25 25 24 22 20
22 22 22 20 20 22 17 13 15 15 13 16 16 12 8 7 9 9 6 5 5 5 8 20 21 18 20 25 27 26 22 17 20 27 28 28 27 30 29 26 26 26 25 26 28 28 28 28 28 26 26 27 27 27 25 24 26 23 21 17 14 18 20 20 33 31 25 21 23 33 29 17 23 31 29 30 33 32 31 31 29 29 27 26 27 26 25 23
21 21 21 20 19 22 19 13 14 16 15 16 16 12 10 7 9 7 2 3 4 3 8 18 20 18 18 23 27 27 23 17 20 25 28 29 27 30 31 27 24 24 24 26 28 27 25 27 29 28 27 25 25 27 26 23 21 20 24 24 19 19 20 18 24 27 23 18 17 31 35 16 13 30 35 34 37 37 36 34 30 29 29 28 29 28 26 25
21 20 21 21 19 21 20 14 15 17 15 16 15 13 12 10 9 6 2 7 8 7 7 18 21 19 19 24 28 28 24 20 19 22 28 30 27 30 32 27 25 25 24 25 27 28 26 24 28 30 29 26 26 28 28 22 18 19 24 24 21 18 20 19 17 16 11 7 8 17 32 25 12 24 39 36 32 33 34 35 34 32 31 31 30 29 27 27
20 20 21 21 20 21 19 14 16 17 14 15 15 13 13 12 11 7 6 13 14 9 9 17 20 19 20 25 28 29 26 22 21 23 31 32 28 32 33 28 27 26 25 28 28 29 29 26 27 29 26 26 27 28 27 24 23 22 23 23 19 16 19 16 12 8 2 3 10 12 14 20 13 19 34 32 25 26 27 29 31 33 34 33 33 30 27 27
19 20 22 22 22 21 16 13 17 17 13 14 15 14 15 13 13 14 15 15 10 7 13 16 18 20 20 24 27 29 28 25 25 26 32 35 31 34 37 30 28 25 24 28 29 29 32 30 27 24 23 25 26 26 23 23 26 25 24 24 15 7 10 7 3 4 3 6 13 15 13 14 15 18 27 29 27 26 24 22 23 26 29 32 34 32 28 27
19 20 21 22 23 20 14 14 18 17 14 15 15 17 16 10 11 20 26 21 9 8 13 14 17 20 21 25 27 28 27 26 27 27 31 35 31 33 37 33 28 25 22 24 28 29 28 28 29 27 26 26 24 25 25 23 27 28 25 24 14 4 4 2 1 2 5 9 15 17 15 17 19 18 20 25 26 27 24 21 19 18 19 23 28 31 30 29
19 21 22 22 23 19 14 15 19 19 17 16 16 18 18 13 15 21 27 29 22 15 12 12 17 20 23 28 28 27 27 27 28 28 29 35 33 32 37 35 30 27 24 22 26 28 21 21 29 30 29 30 26 24 23 22 27 31 27 24 19 8 4 3 4 4 6 10 14 16 13 17 19 12 12 16 18 24 23 17 16 16 14 17 22 25 28 29
20 22 22 21 21 19 16 17 20 20 19 19 18 21 22 21 22 25 29 33 31 25 20 18 18 23 25 26 27 27 27 27 29 30 31 36 35 32 36 38 33 29 28 25 23 25 21 21 30 31 28 29 29 27 25 25 28 30 28 29 25 14 5 7 8 10 12 10 10 14 14 16 19 11 6 6 8 17 20 16 20 25 24 23 23 22 24 26
21 22 22 21 19 18 17 19 21 21 21 21 21 26 30 28 27 28 30 31 29 26 22 23 21 25 28 26 26 28 28 27 28 30 31 35 35 32 33 37 35 33 31 27 23 22 22 21 23 28 28 25 24 28 32 30 24 22 22 24 23 19 15 13 11 15 16 7 6 15 16 11 13 11 7 6 10 15 19 23 26 26 26 26 24 21 22 25
21 22 21 20 16 16 18 20 21 22 23 23 26 30 33 33 31 31 32 29 27 25 24 27 21 17 24 26 26 28 28 28 29 29 30 33 33 32 33 34 35 35 32 29 25 22 21 20 18 25 28 23 19 25 35 35 25 22 24 22 20 23 24 19 7 7 9 5 5 15 19 13 13 13 12 15 18 20 22 26 25 21 20 22 22 19 20 25
21 21 19 17 14 16 20 21 22 24 23 25 31 33 33 34 34 34 34 30 28 28 29 29 22 16 16 22 26 26 28 30 30 29 28 30 31 31 33 33 34 35 34 32 29 24 21 21 22 28 29 24 23 26 33 37 31 22 25 28 24 23 26 22 10 3 4 3 2 9 16 16 16 17 21 25 25 27 26 21 18 18 18 19 19 15 15 21
20 18 15 12 12 17 19 20 21 24 26 29 33 34 34 35 35 35 34 30 28 29 30 29 26 23 22 20 23 27 30 31 31 29 27 27 28 30 33 33 32 34 36 36 35 29 24 20 19 28 34 28 29 32 34 36 31 20 20 27 25 23 26 25 17 11 6 3 1 4 7 6 6 14 23 27 27 30 27 17 13 15 15 14 14 12 12 17
18 16 10 7 11 15 15 17 21 25 30 34 35 34 33 34 35 35 34 29 28 28 27 29 30 26 23 20 19 25 30 31 32 30 28 25 23 25 31 34 33 32 32 35 37 34 31 26 20 23 35 33 32 36 36 33 28 22 22 26 25 24 24 21 19 19 11 4 3 2 4 5 2 10 23 27 25 24 20 14 12 13 12 9 9 9 11 15
16 10 2 3 8 8 9 16 22 27 31 34 34 33 33 33 34 34 31 27 27 29 29 31 31 28 25 23 20 21 26 31 33 31 28 28 25 23 27 33 34 32 30 34 38 37 33 29 23 21 33 34 33 35 34 32 29 24 24 28 25 21 19 12 10 17 15 6 4 5 1 3 8 17 24 23 20 18 15 15 16 15 11 7 7 8 10 13
14 6 8 10 10 7 9 15 19 23 29 33 33 33 32 31 32 33 29 24 25 28 30 32 32 31 29 28 24 18 14 19 29 33 30 28 28 26 25 29 33 34 31 33 36 38 35 29 22 21 31 32 29 31 33 31 29 28 25 25 24 20 19 12 5 12 16 11 10 7 5 7 11 17 21 20 19 20 18 16 15 14 11 8 9 9 9 11
14 9 16 18 17 12 13 16 16 19 26 29 29 29 29 28 30 31 28 24 24 25 27 29 32 30 27 29 28 19 15 14 16 26 30 30 29 28 25 25 30 34 35 33 33 35 36 32 24 19 26 34 30 29 34 33 29 30 29 27 26 24 25 22 11 11 15 14 15 7 4 9 13 15 18 19 19 20 17 11 10 13 13 12 12 11 9 10
14 11 19 20 20 18 18 19 17 18 21 23 24 26 27 27 29 30 28 26 24 24 25 26 27 24 22 25 26 21 16 16 17 17 22 29 32 29 26 25 28 34 37 34 32 33 33 32 27 14 10 23 25 23 30 35 32 31 30 29 29 28 28 25 16 10 13 16 18 10 6 13 17 17 19 17 15 14 12 9 10 15 17 14 13 12 9 9
14 12 19 19 17 19 22 22 19 18 19 20 22 25 26 27 30 30 29 29 27 26 27 26 24 21 20 22 25 25 21 18 20 20 15 18 29 30 27 26 27 32 36 33 30 32 33 30 27 19 8 9 12 14 23 32 32 29 29 29 29 27 26 25 21 14 10 15 18 14 15 21 22 20 19 18 16 15 13 11 11 14 15 14 13 12 9 8
10 10 17 20 19 21 22 20 19 20 21 22 24 25 25 28 29 27 28 29 28 28 29 28 25 21 19 21 23 26 24 20 21 23 21 19 19 21 21 27 30 29 32 34 31 30 34 33 29 28 26 20 13 11 21 31 31 26 24 29 33 29 25 24 26 23 15 12 16 16 17 25 27 24 23 23 21 18 16 12 13 15 15 14 12 11 11 10
9 9 15 20 22 23 22 20 19 20 21 24 27 26 24 26 27 25 26 26 27 28 28 27 25 22 21 21 21 24 24 22 21 24 24 22 19 12 12 22 31 31 29 34 35 32 32 34 32 30 29 27 19 11 14 24 30 26 22 26 31 29 25 25 28 31 28 19 15 17 20 25 29 28 28 28 25 22 18 11 12 16 14 11 11 12 12 13
12 14 17 18 18 20 22 22 20 21 21 22 27 30 27 24 24 25 24 25 26 27 26 26 27 27 26 23 23 25 22 22 24 24 22 22 22 13 7 10 20 30 33 33 35 35 31 26 28 29 26 24 24 20 16 17 23 24 21 22 30 30 28 29 27 28 32 27 22 23 24 27 29 28 28 28 24 22 18 12 11 12 9 9 10 11 12 14
15 17 19 20 20 20 21 20 17 18 18 17 22 28 29 26 25 25 24 24 24 23 24 27 32 34 31 25 24 26 23 20 21 20 20 18 16 11 9 9 11 14 31 38 34 33 31 22 19 23 24 26 28 29 26 21 20 21 20 18 23 28 28 29 28 24 23 23 24 25 25 27 28 27 28 26 21 19 17 16 18 14 9 11 12 12 14 17
14 16 18 21 23 22 20 19 16 15 16 16 18 22 26 27 27 26 24 22 21 19 19 24 30 33 33 28 23 23 22 18 13 11 19 21 17 15 14 11 10 3 21 37 35 30 30 26 21 19 18 21 24 28 32 28 22 22 23 21 18 20 23 26 27 27 26 25 23 20 21 26 28 26 26 24 20 18 18 19 19 15 13 15 15 15 17 20
13 15 17 19 24 24 21 19 17 14 12 13 16 18 21 24 23 25 27 25 22 20 18 21 26 29 31 30 27 26 25 23 15 9 13 20 20 21 17 9 8 6 7 20 29 30 27 24 25 24 19 18 20 20 24 28 26 26 28 27 23 21 22 23 23 24 26 28 27 24 24 25 26 24 23 23 22 22 20 17 16 16 17 18 20 21 20 20
14 15 16 17 22 25 22 20 18 14 10 12 16 19 21 21 17 17 24 29 29 24 18 20 23 24 24 25 25 25 25 25 19 9 8 15 20 23 23 17 12 9 15 16 19 25 22 19 22 22 17 17 22 21 19 22 22 22 28 30 25 24 24 20 17 19 24 29 29 25 23 21 23 26 25 23 22 19 16 15 15 15 18 21 23 22 20 20
Wind_Direction
313 313 315 320 323 316 306 302 302 303 299 290 283 278 275 274 275 277 279 282 284 286 288 289 290 290 288 286 284 280 275 269 263 255 246 236 234 232 224 217 217 217 215 210 212 210 194 172 127 98 117 99 97 121 65 282 243 237 233 262 157 166 151 124 142 144 144 135 131 137 139 137 133 116 101 108 109 114 137 135 138 165 158 120 121 131 141 141
314 313 314 317 321 320 310 302 302 304 304 298 290 283 280 278 278 279 280 283 285 287 289 291 292 290 288 287 284 280 276 269 260 251 243 230 230 227 216 211 209 207 205 203 203 191 177 159 112 69 122 102 52 266 291 238 244 241 222 171 111 134 105 114 136 136 144 141 135 138 142 145 139 124 117 121 133 150 157 147 154 157 145 138 135 135 138 141
313 312 312 314 318 321 314 303 301 303 305 304 296 289 284 282 281 281 281 283 286 288 290 292 292 291 289 287 283 280 274 267 261 251 241 228 226 222 209 205 201 200 197 197 196 181 174 152 137 238 219 175 240 244 208 189 246 274 313 109 122 123 107 119 135 136 144 144 135 135 146 155 149 135 137 139 144 164 172 152 153 147 146 147 143 141 140 143
311 311 310 313 315 319 318 307 301 302 305 307 303 294 287 284 283 283 283 285 287 289 292 293 293 292 289 286 282 278 272 268 262 246 231 228 225 215 206 201 196 195 192 193 189 175 174 148 143 210 231 237 225 209 214 203 117 248 352 64 121 132 124 129 138 138 141 139 135 139 151 155 148 144 147 150 149 169 194 175 157 153 152 148 146 151 147 146
309 309 309 311 313 316 319 312 302 300 304 307 307 300 291 286 284 284 286 287 289 290 293 293 293 291 287 283 280 276 272 263 255 244 222 219 220 211 203 198 194 191 188 191 181 170 179 162 152 191 219 231 228 228 241 230 110 120 45 62 113 120 118 124 131 132 133 133 133 135 138 134 132 135 144 153 149 164 197 180 150 157 158 154 152 154 154 151
308 307 308 309 310 314 317 316 306 299 302 305 307 304 296 289 286 286 287 289 291 292 293 293 290 287 283 280 278 272 263 246 244 261 222 209 208 205 200 196 192 189 188 186 176 171 187 178 163 179 203 219 229 234 214 169 130 122 109 103 115 120 117 114 121 132 134 135 137 137 140 147 139 133 146 157 145 162 203 185 135 146 163 166 159 158 160 158
308 305 306 306 308 311 314 317 310 301 299 302 306 306 300 293 290 289 289 292 293 294 293 290 284 281 278 276 275 265 256 243 233 264 215 203 197 198 197 195 190 188 187 181 175 177 190 185 169 174 204 214 218 209 185 141 125 122 116 131 128 124 124 119 124 128 131 134 136 135 135 156 151 138 155 162 145 169 205 197 143 143 160 172 169 165 166 166
308 304 303 304 306 309 312 316 314 306 298 300 303 304 303 296 293 292 291 293 294 295 292 286 281 277 276 273 271 261 255 244 229 227 211 198 194 194 194 194 189 186 183 177 176 182 188 179 165 175 206 213 237 241 207 155 147 143 121 138 127 114 127 133 135 132 133 138 137 137 132 133 129 129 152 160 155 179 203 202 176 158 161 168 172 173 171 173
310 304 302 302 304 307 310 314 314 309 300 298 300 301 302 298 296 294 293 295 295 296 289 282 280 276 275 271 271 264 252 234 225 221 210 200 195 193 192 192 188 184 180 174 177 185 185 169 159 177 212 233 259 242 197 168 161 158 138 133 127 125 141 143 138 139 141 144 149 152 147 141 130 121 132 151 164 184 201 208 189 167 166 168 172 172 170 177
312 307 302 300 302 304 307 311 313 311 302 297 298 298 298 297 297 295 295 296 294 295 288 281 279 276 277 272 271 267 249 232 229 222 209 205 199 194 192 190 187 183 178 174 180 185 180 164 160 192 272 282 260 231 193 174 144 142 143 138 141 138 142 141 130 136 142 147 169 158 139 142 140 132 136 157 176 190 201 198 169 161 168 172 169 162 165 178
313 309 303 299 299 302 305 308 310 310 304 297 297 296 294 294 296 296 296 296 295 293 287 280 279 279 277 273 271 262 249 235 233 225 213 207 201 197 192 189 186 181 177 176 182 186 186 182 183 216 259 262 229 224 182 169 149 142 152 142 144 140 133 138 133 149 157 155 174 132 120 128 140 144 152 171 183 188 189 165 156 148 163 177 161 159 173 178
310 309 306 300 298 300 301 305 307 308 304 297 295 295 292 291 292 295 296 297 295 291 286 281 280 285 278 275 270 244 235 231 216 200 203 204 197 195 193 192 186 181 177 177 181 184 190 194 191 229 256 256 243 220 167 189 186 161 158 149 147 149 139 144 149 158 160 143 146 131 125 130 141 149 160 172 173 181 177 150 161 149 161 175 151 164 183 176
306 307 305 301 299 298 298 302 305 305 303 296 294 294 291 289 289 293 296 297 296 288 285 282 282 288 281 276 252 220 212 213 214 194 190 195 192 191 193 192 187 182 177 177 179 180 185 188 225 274 267 252 240 199 186 201 177 153 157 153 151 159 156 166 157 151 151 147 153 138 132 140 150 154 161 163 165 176 166 155 171 168 174 173 149 175 193 179
301 303 303 301 298 296 296 299 302 304 302 295 293 293 290 288 287 290 294 296 295 288 282 281 284 287 283 277 239 224 208 200 210 202 189 187 188 191 193 191 186 182 179 178 175 173 179 206 280 274 248 214 196 197 208 180 159 155 160 159 164 170 161 163 162 160 156 149 164 158 143 155 166 154 157 161 171 179 167 167 182 184 187 175 162 188 199 189
296 299 300 299 297 295 295 296 300 302 300 295 290 291 290 287 287 290 295 295 292 287 280 277 282 288 286 270 225 224 217 211 216 208 194 185 187 195 195 191 185 180 179 179 172 170 189 273 275 253 208 200 209 224 213 170 163 165 166 170 177 178 164 168 179 180 165 153 178 180 149 158 168 163 158 160 175 183 171 176 187 194 205 182 176 198 196 193
293 295 296 298 298 296 295 295 298 298 299 296 288 290 289 284 287 291 295 296 290 284 278 273 276 291 286 252 221 222 225 227 226 212 193 184 188 196 195 191 184 178 179 179 171 167 196 239 247 233 205 212 222 222 198 168 172 174 172 169 168 180 177 176 186 186 169 160 189 207 165 166 173 185 172 157 175 185 177 183 188 197 219 199 178 201 194 189
292 293 294 295 297 297 298 297 297 296 297 295 287 287 288 287 294 300 302 298 291 280 274 271 269 285 283 256 249 247 241 232 221 206 191 186 190 192 193 191 181 176 177 174 165 165 191 219 225 223 223 227 223 227 207 174 172 174 177 178 175 191 194 181 181 179 188 187 196 213 180 176 179 190 194 164 176 184 182 187 188 198 222 214 183 201 197 192
290 292 292 293 295 297 298 298 298 295 293 294 288 284 285 286 298 307 300 289 286 279 269 267 266 272 273 15 350 294 260 240 210 192 188 188 187 184 190 189 176 172 178 177 176 178 200 232 222 221 231 231 229 239 218 177 165 172 182 186 181 185 196 198 184 180 203 195 184 188 173 174 178 190 199 176 180 187 186 184 186 203 224 218 199 207 198 194
290 290 290 292 294 296 298 298 299 296 291 292 289 287 285 270 278 309 298 273 269 272 265 262 257 238 191 95 26 333 246 236 210 185 189 193 178 174 193 189 177 175 185 194 194 183 194 219 214 218 227 230 237 245 221 183 173 186 195 191 182 182 191 196 194 195 197 179 182 192 175 178 180 181 186 189 200 208 203 192 190 207 224 217 213 218 204 196
289 290 289 290 292 295 298 298 299 296 290 288 286 290 287 256 258 294 288 266 256 260 253 253 252 216 171 147 101 324 266 221 215 185 189 195 171 171 197 192 182 185 189 195 194 181 196 213 212 217 221 223 235 239 216 194 187 193 195 196 192 189 186 186 187 190 193 194 197 195 179 179 178 176 184 194 208 213 214 218 218 219 220 215 213 213 208 201
288 289 289 289 289 292 296 298 298 294 290 291 290 291 287 263 266 283 288 277 262 250 237 232 243 227 191 165 164 228 252 211 211 194 192 193 172 176 198 194 187 194 190 188 190 189 206 218 215 216 216 216 222 229 225 218 209 196 190 199 200 193 188 187 180 178 196 212 197 194 189 180 180 181 185 193 205 210 214 227 244 242 225 221 216 202 201 203
288 288 288 288 288 288 291 295 294 292 289 292 296 301 303 285 281 287 297 291 273 247 234 220 226 229 203 164 158 180 223 207 202 201 196 190 179 184 199 194 189 197 194 189 201 206 210 217 214 210 212 217 222 232 236 239 239 222 207 208 202 192 187 184 182 181 194 197 185 189 185 178 187 190 187 192 200 206 216 230 249 257 242 234 227 202 198 207
287 286 286 287 286 286 288 290 291 290 289 291 300 321 327 320 308 301 301 296 281 245 231 220 216 223 190 156 148 175 210 209 199 199 197 189 184 185 198 198 189 198 201 199 210 213 212 214 209 207 216 229 233 232 236 238 247 252 242 228 203 190 186 182 182 182 189 195 188 179 169 173 186 196 195 194 195 204 215 227 244 255 255 251 245 219 207 212
287 285 285 285 284 284 283 285 289 288 286 288 266 182 224 295 335 307 286 286 282 255 229 224 217 213 184 159 162 198 204 209 205 201 197 188 184 183 196 202 191 198 206 205 212 215 216 213 207 211 220 233 235 225 231 236 240 252 258 261 226 194 192 186 179 172 181 199 192 170 164 176 184 189 195 197 198 203 210 221 231 237 244 252 254 240 218 217
288 286 284 283 282 281 278 282 285 284 280 256 213 209 223 228 249 272 273 280 284 271 235 230 223 211 188 169 194 202 199 209 210 206 202 188 184 186 195 203 197 200 206 206 214 220 218 213 211 219 220 228 238 230 228 233 242 252 254 262 251 218 201 179 171 169 178 195 192 176 164 176 187 189 191 199 203 202 209 217 218 221 230 239 250 252 234 224
288 286 284 283 280 276 274 277 280 278 266 233 226 233 235 239 244 263 280 285 287 281 249 233 225 213 199 182 184 196 203 215 211 207 209 192 183 187 194 203 201 201 206 206 215 224 220 213 214 223 224 223 234 239 235 228 239 252 250 253 252 251 241 179 171 175 184 194 196 191 188 175 185 194 193 197 203 202 208 211 209 215 224 231 244 254 249 240
288 287 284 282 279 275 269 270 276 272 255 237 238 248 248 252 259 276 300 294 288 288 249 223 220 216 209 190 181 192 203 212 209 203 211 203 186 184 192 202 202 200 204 205 213 220 219 216 213 219 227 226 226 235 240 225 222 236 246 257 250 252 256 195 182 185 188 197 199 197 200 181 183 200 201 197 200 200 203 208 212 218 224 230 237 246 251 251
285 285 283 281 277 275 268 261 268 265 252 242 242 247 243 248 255 265 307 297 281 299 222 210 211 215 215 198 189 197 201 203 207 200 206 212 195 186 195 202 204 202 199 206 216 216 218 220 215 213 223 232 229 226 234 227 216 222 231 239 231 233 253 218 190 188 193 201 201 196 197 183 185 201 204 199 200 201 202 207 215 220 226 231 232 238 245 248
281 281 281 277 273 273 269 258 256 257 253 247 246 243 237 248 253 243 283 262 245 284 221 202 203 206 201 193 191 200 205 202 207 199 199 213 203 193 200 199 202 208 202 211 221 218 220 224 218 214 215 226 230 221 228 231 218 219 226 233 236 228 244 237 193 186 196 205 204 197 193 188 190 196 196 196 200 206 210 210 211 219 226 230 231 235 238 241
277 278 277 274 270 267 266 261 253 253 253 251 248 239 236 245 245 233 227 236 252 302 236 196 202 203 184 183 190 201 208 204 207 199 194 208 207 197 203 199 201 213 213 216 225 223 224 224 222 222 216 219 228 223 227 232 223 224 229 239 252 238 232 238 215 197 201 217 247 217 198 195 194 193 197 202 210 218 220 214 209 212 220 227 231 233 233 234
276 275 273 272 267 261 261 261 255 252 247 248 244 230 231 235 230 225 223 237 255 282 234 201 202 203 184 182 191 200 207 204 204 199 191 200 205 199 203 207 210 220 222 220 224 227 228 225 224 228 220 214 224 229 228 223 222 228 228 230 241 235 224 229 235 230 221 226 258 273 232 212 209 203 207 217 233 237 227 216 210 210 217 223 227 229 230 232
275 271 269 269 265 259 255 250 253 251 241 240 237 224 225 229 226 226 228 240 257 234 214 203 199 202 192 187 194 202 207 205 203 202 194 194 200 202 203 206 212 221 226 220 218 226 233 231 222 221 220 213 215 222 219 210 218 226 232 235 234 220 217 225 254 247 265 267 254 272 285 262 255 247 233 232 238 238 232 224 218 216 219 222 223 225 227 229
274 270 265 264 264 260 248 241 246 246 236 229 227 220 218 226 229 226 230 237 234 190 199 200 198 200 194 193 198 203 208 207 205 204 198 195 199 205 207 205 208 218 226 220 216 218 227 235 228 215 215 217 214 212 203 199 214 222 227 237 237 165 148 214 247 233 265 272 256 258 271 271 272 275 260 249 243 235 227 221 219 216 218 221 221 224 228 231
272 269 263 260 263 260 244 235 238 239 233 223 220 216 213 227 231 226 234 236 228 225 235 226 204 194 192 198 201 202 205 206 206 207 200 194 197 204 209 208 206 214 223 222 221 217 215 230 228 213 207 212 212 208 204 200 212 222 221 221 230 222 143 179 187 175 238 251 248 250 250 252 258 268 269 263 247 228 216 209 212 211 210 216 217 222 228 232
269 268 265 259 259 257 243 233 232 232 230 222 218 215 216 227 228 225 233 234 233 244 260 258 226 196 190 202 205 204 206 203 202 209 202 193 197 202 208 211 207 209 219 220 222 221 217 226 225 214 208 211 208 208 212 208 210 220 215 207 220 238 227 226 220 210 228 244 247 246 247 245 240 235 254 258 206 201 199 194 206 210 209 211 210 218 228 231
268 266 266 261 255 252 242 233 229 228 227 222 218 219 222 224 224 226 230 233 240 251 268 282 257 206 189 198 208 208 209 205 202 209 205 196 200 204 206 213 211 209 217 220 220 219 218 229 222 204 201 207 209 209 211 212 211 211 203 202 213 224 232 239 223 210 221 239 251 249 257 248 211 196 218 209 152 154 176 191 201 203 205 209 213 220 225 226
268 266 265 264 257 247 239 233 227 224 224 221 220 225 229 229 227 229 232 239 250 257 279 299 286 223 193 192 204 211 210 208 207 211 207 196 201 208 207 212 215 213 216 220 221 218 216 228 217 195 199 207 209 212 212 214 221 211 199 208 213 214 232 250 243 190 208 224 233 239 246 235 202 189 182 168 144 140 168 190 194 194 198 204 208 216 219 222
270 268 267 268 256 239 233 229 225 223 221 221 225 230 234 235 234 231 234 245 257 265 281 292 290 271 235 202 199 210 211 208 207 210 208 197 199 210 208 209 217 217 215 217 221 221 220 229 220 204 210 211 204 213 215 215 228 225 206 211 211 210 228 241 244 210 198 210 217 241 244 236 227 212 180 162 155 156 169 180 182 189 194 191 195 205 217 222
275 272 275 275 253 238 232 227 225 223 220 222 227 231 235 239 238 234 236 245 258 270 282 282 280 282 269 231 206 206 208 209 209 208 209 203 202 209 210 210 215 217 217 219 224 228 231 241 234 211 209 204 194 206 217 219 229 232 209 205 201 206 223 225 222 218 195 175 197 273 280 274 253 224 193 180 176 173 175 180 185 190 187 186 196 206 220 226
279 279 283 263 236 234 229 222 222 221 221 225 228 232 238 243 244 241 240 246 255 267 277 274 275 279 272 257 234 212 205 207 212 212 210 206 205 207 209 210 212 216 221 223 225 231 236 246 252 216 200 197 192 198 210 217 221 219 215 210 197 199 214 216 220 222 203 151 142 185 311 351 56 195 189 180 176 174 178 184 188 191 190 198 217 223 230 234
278 281 291 211 227 235 218 213 219 220 224 230 231 234 239 245 250 249 246 251 256 262 267 263 268 276 270 267 262 234 210 203 208 213 209 203 204 204 205 211 213 214 220 223 224 227 231 239 247 210 188 193 199 198 203 211 214 214 220 222 215 210 210 199 207 215 206 190 172 164 130 50 126 163 172 170 170 176 180 177 173 176 182 190 210 234 249 243
271 238 144 159 191 224 237 225 225 226 227 231 232 235 241 245 253 255 251 253 257 261 262 258 264 273 267 264 269 263 240 215 209 210 209 205 208 212 212 215 216 214 216 222 223 223 226 235 243 216 192 194 204 205 202 205 212 218 223 228 234 241 239 236 217 200 204 211 204 178 123 122 136 150 157 155 155 160 162 167 171 180 195 196 193 219 256 257
266 207 167 177 186 205 245 247 240 240 237 239 240 240 244 248 254 258 256 255 260 262 259 255 262 270 265 260 267 279 293 284 239 219 215 211 211 217 222 221 215 211 214 222 223 220 225 232 238 231 205 198 205 211 205 200 204 215 220 223 230 239 244 252 252 200 196 198 196 191 109 142 154 157 161 158 155 159 161 164 171 183 195 199 201 217 246 259
263 206 179 193 197 199 224 236 238 244 247 251 251 246 248 250 251 256 256 254 258 260 255 251 257 264 259 251 258 268 279 287 283 259 233 223 219 218 222 221 213 207 211 220 220 215 220 227 229 234 205 193 202 207 197 191 195 209 217 218 219 221 227 242 255 227 191 188 194 189 146 159 163 166 177 178 176 185 191 189 185 183 185 195 216 227 233 245
260 214 186 197 211 216 227 230 231 244 250 253 254 251 251 251 251 252 253 253 254 254 255 256 257 260 253 244 251 262 267 271 275 278 282 256 233 221 219 218 210 206 210 218 219 213 217 224 224 224 215 186 195 207 201 193 191 204 220 226 226 224 223 228 240 241 205 188 196 182 149 155 162 167 176 177 176 180 181 181 189 194 197 206 223 239 249 249
257 220 196 198 208 225 240 242 240 243 247 251 256 256 252 251 253 254 254 254 252 250 255 258 260 264 260 250 251 256 262 267 262 266 288 290 254 230 222 216 209 204 209 215 216 213 217 223 225 227 231 224 203 205 209 198 189 195 217 231 236 240 241 228 222 229 229 204 197 193 170 163 168 176 181 180 176 170 169 177 186 192 201 212 225 253 275 271
250 220 213 209 204 212 230 242 248 249 250 254 259 260 258 254 252 251 251 250 249 252 255 253 252 256 257 256 261 262 263 263 259 259 272 287 288 264 221 215 214 209 209 214 213 212 216 219 221 226 231 225 216 225 220 199 193 196 207 222 229 236 247 239 222 221 225 221 197 192 196 188 184 188 192 192 188 180 181 200 205 201 214 232 242 258 277 282
247 222 219 221 213 209 213 220 229 239 244 253 259 259 262 262 253 248 248 249 249 250 249 247 244 242 245 256 270 276 275 268 263 260 263 282 294 280 228 234 233 216 210 215 214 213 216 214 213 219 224 225 232 248 247 219 211 214 218 221 217 219 237 249 242 225 219 222 212 201 212 216 207 203 204 203 202 200 207 223 212 203 217 232 242 257 269 280
257 238 226 226 225 218 214 214 222 235 242 258 266 258 256 258 255 251 252 256 257 245 238 247 248 243 244 254 269 279 286 285 274 262 260 282 306 287 249 276 286 223 207 213 214 214 219 218 209 215 223 229 238 247 249 248 245 242 254 256 224 214 228 242 249 244 232 236 232 218 223 230 225 223 222 220 224 225 219 203 190 191 203 211 230 254 263 273
266 259 243 233 229 225 222 220 225 236 242 259 271 263 255 253 254 255 252 254 259 248 235 247 253 249 247 250 263 275 280 289 302 286 269 278 293 282 262 272 311 268 200 210 211 210 218 221 215 219 226 224 230 244 249 252 259 257 264 273 251 232 237 240 246 249 244 247 247 232 229 232 231 233 232 225 217 205 193 191 198 217 230 230 242 257 265 275
272 269 259 243 231 226 228 231 234 243 254 272 280 274 260 251 253 258 253 249 253 254 250 252 252 252 249 247 257 270 271 275 294 312 277 267 269 268 263 272 300 307 247 228 214 205 210 213 213 222 233 228 230 247 247 241 250 258 257 260 258 250 249 246 247 249 246 248 247 233 224 224 220 216 210 201 193 190 193 204 216 228 236 243 252 257 266 276
271 271 272 262 239 228 235 247 246 245 265 296 298 287 271 260 259 262 257 253 246 241 254 263 249 243 248 248 252 261 266 269 271 273 249 245 255 259 255 263 279 302 315 286 220 195 196 201 206 215 226 236 240 249 247 233 235 244 242 244 254 261 261 257 260 266 257 251 248 234 217 205 197 194 191 187 190 197 208 219 223 228 240 249 254 258 273 285
Height
3176 3175 3174 3173 3172 3171 3170 3170 3169 3168 3167 3167 3166 3166 3166 3166 3166 3166 3166 3166 3166 3165 3164 3163 3163 3163 3162 3161 3161 3161 3161 3161 3161 3162 3163 3166 3167 3167 3170 3172 3173 3175 3176 3177 3179 3180 3182 3183 3184 3184 3185 3185 3185 3185 3184 3183 3184 3185 3186 3187 3187 3189 3190 3189 3189 3191 3193 3195 3195 3195 3195 3195 3196 3197 3197 3198 3199 3198 3198 3198 3198 3198 3198 3198 3199 3200 3200 3201
3175 3174 3173 3172 3171 3170 3169 3169 3168 3167 3166 3166 3165 3164 3164 3164 3164 3164 3164 3164 3164 3163 3163 3162 3161 3160 3160 3159 3158 3158 3158 3159 3159 3159 3162 3164 3163 3165 3168 3170 3172 3173 3175 3176 3178 3179 3181 3182 3182 3183 3185 3184 3182 3183 3184 3184 3185 3186 3186 3187 3186 3188 3190 3189 3190 3192 3193 3194 3195 3195 3195 3195 3196 3197 3198 3199 3199 3198 3197 3197 3198 3198 3199 3200 3200 3201 3202 3203
3173 3173 3172 3171 3170 3169 3168 3167 3167 3166 3165 3165 3164 3163 3163 3163 3162 3162 3162 3162 3162 3162 3161 3160 3159 3158 3158 3157 3156 3156 3156 3156 3156 3158 3160 3160 3161 3164 3166 3168 3170 3172 3174 3175 3177 3178 3180 3180 3180 3182 3184 3183 3181 3182 3185 3184 3185 3186 3187 3187 3186 3186 3189 3191 3191 3192 3194 3194 3195 3195 3195 3195 3196 3197 3197 3198 3198 3197 3197 3197 3199 3199 3199 3200 3201 3202 3203 3203
3172 3171 3171 3170 3169 3168 3167 3166 3166 3165 3164 3164 3163 3162 3162 3161 3161 3161 3160 3160 3160 3160 3159 3158 3157 3156 3156 3155 3154 3154 3154 3154 3154 3155 3157 3158 3160 3163 3165 3167 3169 3171 3172 3174 3176 3178 3179 3179 3180 3181 3183 3183 3181 3182 3185 3184 3185 3186 3187 3188 3187 3187 3189 3192 3192 3193 3194 3194 3195 3195 3195 3195 3196 3197 3197 3197 3197 3198 3198 3198 3199 3200 3200 3200 3201 3202 3203 3204
3171 3170 3169 3168 3168 3167 3166 3165 3164 3164 3163 3162 3162 3161 3161 3160 3160 3159 3159 3158 3158 3158 3157 3156 3156 3155 3154 3153 3153 3152 3153 3153 3152 3153 3155 3156 3159 3161 3164 3166 3167 3169 3171 3173 3175 3177 3179 3179 3179 3179 3181 3182 3181 3183 3185 3186 3186 3186 3187 3188 3188 3189 3189 3191 3192 3193 3194 3195 3195 3195 3195 3195 3196 3197 3198 3198 3197 3197 3197 3198 3200 3201 3201 3201 3202 3202 3203 3204
3169 3168 3168 3167 3166 3166 3165 3164 3163 3162 3162 3161 3160 3160 3159 3159 3158 3158 3157 3156 3156 3156 3155 3154 3154 3153 3153 3152 3152 3151 3151 3151 3152 3153 3154 3155 3157 3160 3162 3164 3166 3168 3170 3172 3174 3176 3179 3179 3178 3177 3179 3180 3180 3183 3185 3186 3187 3186 3186 3188 3189 3190 3191 3191 3192 3194 3195 3195 3195 3195 3195 3195 3196 3197 3198 3198 3198 3198 3197 3198 3200 3201 3202 3203 3203 3203 3204 3205
3167 3167 3166 3166 3165 3164 3163 3163 3162 3161 3161 3160 3159 3159 3158 3157 3157 3156 3156 3155 3154 3154 3153 3153 3152 3152 3151 3151 3150 3150 3150 3150 3151 3152 3152 3153 3155 3158 3160 3162 3164 3167 3169 3171 3174 3176 3178 3178 3177 3177 3178 3179 3179 3182 3184 3185 3186 3185 3186 3188 3190 3191 3191 3192 3193 3194 3195 3195 3195 3195 3196 3196 3196 3197 3198 3198 3198 3198 3198 3199 3201 3202 3203 3203 3204 3204 3205 3205
3166 3165 3164 3164 3163 3163 3162 3161 3160 3160 3159 3159 3158 3157 3157 3156 3155 3155 3154 3153 3153 3152 3151 3151 3151 3151 3150 3149 3149 3148 3149 3149 3150 3151 3152 3153 3154 3156 3158 3161 3163 3166 3168 3170 3173 3174 3176 3177 3177 3177 3177 3177 3179 3181 3183 3184 3185 3185 3187 3188 3190 3191 3192 3192 3193 3194 3195 3194 3194 3195 3196 3196 3197 3197 3198 3198 3198 3198 3198 3199 3201 3202 3203 3204 3204 3205 3206 3206
3164 3164 3163 3162 3162 3161 3161 3160 3159 3158 3158 3157 3157 3156 3155 3155 3154 3154 3153 3152 3151 3150 3150 3149 3149 3149 3149 3148 3147 3147 3148 3148 3148 3150 3151 3152 3154 3155 3157 3160 3162 3165 3167 3170 3172 3173 3176 3177 3175 3175 3176 3178 3180 3181 3184 3184 3184 3185 3186 3188 3190 3191 3192 3193 3194 3194 3194 3193 3194 3195 3196 3197 3197 3197 3198 3199 3198 3198 3198 3199 3201 3202 3203 3204 3204 3205 3206 3207
3163 3162 3161 3161 3160 3160 3159 3159 3158 3157 3156 3156 3155 3155 3154 3153 3153 3152 3152 3151 3150 3149 3149 3148 3147 3147 3147 3147 3146 3146 3146 3147 3148 3149 3151 3151 3153 3154 3156 3159 3161 3164 3167 3169 3170 3171 3175 3175 3172 3174 3178 3180 3181 3181 3183 3183 3183 3185 3186 3189 3191 3191 3193 3194 3194 3194 3194 3194 3195 3196 3196 3197 3198 3198 3198 3199 3198 3198 3199 3199 3200 3201 3202 3203 3204 3205 3206 3207
3162 3161 3160 3159 3159 3158 3158 3157 3156 3155 3155 3154 3154 3153 3152 3152 3151 3151 3150 3150 3149 3148 3147 3146 3146 3146 3145 3145 3145 3145 3145 3146 3147 3148 3150 3151 3152 3154 3156 3158 3160 3163 3166 3168 3169 3171 3173 3173 3171 3174 3178 3181 3181 3182 3183 3182 3183 3185 3187 3189 3191 3192 3193 3193 3194 3195 3195 3195 3196 3196 3196 3197 3198 3198 3198 3198 3198 3198 3198 3199 3200 3201 3202 3203 3204 3205 3206 3207
3160 3159 3159 3158 3157 3157 3156 3155 3155 3154 3153 3153 3152 3152 3151 3150 3150 3149 3149 3148 3148 3147 3146 3145 3144 3144 3143 3143 3143 3144 3145 3145 3145 3147 3149 3150 3151 3153 3155 3157 3159 3162 3164 3167 3168 3170 3173 3172 3172 3174 3176 3180 3181 3182 3182 3182 3184 3185 3186 3187 3190 3192 3192 3193 3194 3195 3195 3195 3196 3196 3196 3197 3198 3199 3198 3198 3198 3198 3198 3199 3199 3201 3202 3203 3204 3205 3206 3207
3159 3158 3157 3156 3156 3155 3154 3154 3153 3153 3152 3151 3150 3150 3150 3149 3148 3148 3147 3147 3146 3145 3144 3143 3143 3142 3142 3141 3141 3142 3143 3144 3144 3146 3148 3150 3151 3152 3154 3156 3158 3161 3164 3166 3167 3170 3172 3172 3172 3173 3175 3178 3181 3181 3181 3182 3183 3185 3186 3186 3190 3192 3192 3194 3194 3195 3195 3195 3196 3196 3196 3197 3198 3198 3199 3199 3199 3199 3199 3199 3200 3201 3201 3203 3204 3205 3206 3207
3157 3157 3156 3155 3154 3153 3153 3152 3152 3151 3150 3149 3149 3148 3148 3148 3147 3146 3146 3145 3145 3144 3143 3142 3141 3141 3140 3140 3140 3140 3142 3143 3143 3144 3146 3148 3150 3151 3153 3154 3157 3160 3163 3165 3166 3169 3171 3171 3171 3171 3172 3175 3179 3180 3180 3181 3182 3184 3186 3186 3189 3191 3191 3194 3194 3195 3195 3194 3196 3196 3195 3196 3197 3198 3199 3200 3201 3200 3200 3201 3201 3201 3201 3203 3204 3205 3206 3207
3156 3155 3154 3153 3152 3152 3151 3150 3150 3149 3149 3148 3147 3147 3146 3146 3146 3145 3144 3144 3143 3143 3142 3141 3140 3139 3139 3139 3139 3139 3141 3142 3142 3143 3145 3147 3149 3150 3152 3154 3156 3159 3162 3165 3165 3167 3169 3171 3171 3170 3169 3171 3175 3178 3179 3180 3181 3183 3184 3186 3188 3190 3191 3193 3194 3194 3194 3194 3196 3196 3195 3196 3197 3198 3199 3200 3201 3200 3200 3201 3201 3201 3201 3202 3204 3205 3206 3206
3154 3153 3153 3152 3151 3150 3149 3148 3148 3147 3147 3146 3146 3145 3145 3145 3145 3144 3143 3142 3142 3142 3141 3140 3139 3138 3137 3137 3137 3138 3140 3141 3141 3143 3144 3146 3148 3150 3152 3154 3156 3158 3161 3164 3165 3166 3167 3170 3171 3169 3169 3170 3172 3176 3178 3178 3179 3181 3183 3184 3187 3189 3190 3191 3192 3193 3193 3194 3196 3196 3195 3195 3196 3197 3198 3200 3200 3200 3200 3201 3201 3201 3201 3202 3203 3204 3205 3205
3152 3151 3151 3150 3149 3148 3147 3146 3146 3145 3145 3145 3144 3144 3143 3143 3143 3142 3142 3141 3140 3140 3140 3138 3137 3137 3136 3136 3137 3138 3139 3140 3140 3142 3143 3145 3148 3150 3151 3153 3155 3158 3161 3162 3164 3166 3167 3168 3169 3169 3169 3169 3169 3173 3176 3176 3177 3180 3181 3183 3185 3187 3190 3190 3190 3192 3192 3193 3195 3196 3194 3193 3195 3196 3198 3199 3200 3200 3200 3201 3201 3201 3201 3201 3203 3203 3203 3204
3150 3149 3149 3148 3147 3147 3146 3144 3143 3143 3143 3143 3142 3142 3142 3142 3142 3141 3140 3139 3138 3139 3138 3138 3137 3136 3135 3136 3137 3138 3138 3138 3139 3141 3143 3145 3147 3149 3151 3153 3155 3158 3160 3162 3163 3164 3166 3168 3168 3169 3169 3167 3167 3169 3172 3173 3174 3177 3179 3180 3182 3185 3187 3188 3190 3190 3191 3192 3194 3195 3194 3193 3195 3196 3197 3198 3198 3199 3199 3200 3201 3201 3200 3201 3202 3202 3202 3203
3147 3147 3147 3146 3146 3145 3144 3143 3141 3141 3141 3142 3141 3140 3141 3141 3140 3139 3137 3137 3136 3136 3137 3137 3136 3134 3134 3134 3136 3138 3137 3138 3139 3140 3142 3144 3146 3149 3151 3153 3155 3157 3159 3160 3161 3162 3164 3166 3167 3167 3167 3166 3165 3166 3169 3171 3172 3174 3175 3177 3179 3181 3183 3185 3187 3189 3190 3192 3192 3193 3193 3193 3194 3195 3196 3197 3198 3198 3199 3200 3201 3200 3200 3201 3201 3201 3202 3203
3145 3145 3144 3144 3143 3143 3142 3141 3140 3139 3139 3140 3140 3139 3139 3139 3138 3137 3135 3134 3134 3134 3135 3135 3134 3133 3132 3131 3134 3139 3139 3139 3139 3140 3142 3144 3145 3149 3151 3152 3155 3156 3157 3159 3161 3162 3163 3164 3165 3165 3164 3164 3164 3165 3167 3169 3170 3170 3172 3175 3176 3177 3179 3180 3182 3185 3187 3189 3191 3192 3192 3191 3192 3195 3196 3197 3197 3197 3198 3198 3199 3200 3200 3200 3201 3201 3201 3202
3142 3142 3142 3142 3141 3141 3141 3140 3138 3137 3137 3138 3138 3138 3138 3138 3137 3135 3133 3131 3131 3132 3131 3132 3133 3131 3131 3130 3131 3137 3141 3139 3139 3140 3141 3143 3145 3148 3149 3151 3153 3154 3156 3158 3161 3163 3163 3162 3162 3164 3164 3163 3164 3165 3165 3167 3169 3169 3169 3170 3173 3174 3174 3175 3178 3182 3184 3186 3188 3190 3192 3191 3191 3194 3195 3196 3197 3197 3197 3197 3198 3199 3199 3200 3200 3200 3201 3201
3140 3139 3140 3140 3139 3139 3139 3138 3137 3136 3136 3137 3137 3138 3138 3137 3137 3135 3133 3128 3127 3129 3129 3129 3130 3129 3130 3130 3128 3134 3140 3139 3139 3140 3141 3143 3144 3146 3147 3149 3151 3153 3155 3158 3159 3161 3161 3160 3161 3163 3163 3163 3164 3165 3165 3165 3166 3168 3169 3168 3169 3171 3172 3174 3177 3179 3181 3182 3184 3187 3189 3190 3191 3193 3194 3195 3196 3196 3196 3196 3197 3198 3199 3199 3199 3200 3200 3200
3137 3137 3137 3137 3137 3137 3137 3136 3135 3135 3135 3136 3136 3136 3136 3135 3135 3135 3133 3127 3123 3125 3126 3126 3128 3128 3128 3128 3128 3131 3137 3137 3137 3139 3140 3141 3143 3144 3146 3148 3150 3152 3155 3155 3156 3158 3158 3158 3161 3163 3163 3162 3163 3164 3164 3164 3164 3165 3167 3168 3168 3168 3168 3172 3175 3177 3179 3180 3181 3184 3186 3187 3190 3191 3192 3194 3195 3196 3195 3195 3196 3196 3197 3198 3198 3199 3199 3199
3134 3134 3134 3134 3135 3135 3135 3134 3133 3133 3134 3134 3134 3134 3133 3132 3132 3131 3130 3127 3121 3121 3123 3123 3124 3126 3125 3125 3127 3130 3133 3135 3136 3137 3138 3139 3141 3143 3145 3147 3150 3151 3153 3154 3154 3156 3157 3159 3161 3162 3161 3161 3163 3164 3163 3163 3163 3163 3164 3165 3167 3166 3163 3165 3170 3174 3177 3179 3180 3181 3183 3185 3187 3189 3190 3192 3193 3194 3194 3194 3194 3195 3196 3197 3197 3198 3199 3198
3132 3132 3132 3132 3132 3133 3133 3132 3132 3132 3133 3133 3132 3130 3130 3129 3128 3127 3127 3125 3120 3117 3120 3120 3119 3122 3123 3123 3127 3130 3131 3133 3134 3136 3137 3138 3140 3142 3144 3147 3148 3149 3151 3153 3154 3154 3156 3159 3160 3159 3160 3160 3161 3162 3162 3162 3162 3162 3161 3162 3164 3165 3164 3163 3167 3172 3174 3177 3177 3177 3180 3183 3184 3186 3188 3189 3190 3191 3191 3191 3191 3192 3193 3194 3195 3195 3197 3197
3129 3129 3129 3129 3129 3130 3131 3130 3130 3131 3131 3131 3130 3129 3129 3128 3128 3128 3126 3124 3118 3113 3115 3116 3116 3117 3120 3121 3125 3129 3130 3130 3133 3135 3136 3137 3139 3141 3144 3145 3146 3147 3149 3152 3154 3153 3154 3157 3158 3157 3158 3159 3159 3159 3160 3162 3162 3160 3160 3160 3160 3163 3166 3165 3164 3166 3168 3170 3172 3172 3174 3179 3181 3182 3183 3185 3187 3188 3188 3188 3188 3189 3190 3191 3192 3193 3195 3195
3126 3126 3126 3127 3126 3127 3129 3128 3128 3129 3129 3129 3128 3129 3129 3128 3130 3128 3127 3126 3117 3109 3109 3111 3112 3114 3117 3119 3122 3126 3126 3127 3131 3133 3134 3135 3137 3140 3142 3143 3144 3145 3148 3151 3151 3150 3151 3154 3155 3155 3156 3157 3158 3156 3157 3160 3161 3159 3159 3160 3160 3160 3164 3164 3162 3162 3164 3167 3170 3169 3169 3173 3177 3177 3179 3182 3184 3186 3186 3186 3186 3186 3187 3188 3189 3190 3191 3192
3123 3124 3124 3125 3124 3123 3126 3127 3127 3126 3127 3127 3127 3129 3128 3128 3129 3127 3128 3127 3115 3106 3106 3107 3110 3113 3115 3118 3120 3123 3124 3126 3128 3130 3132 3134 3136 3138 3138 3141 3143 3144 3146 3147 3146 3147 3149 3150 3151 3153 3153 3153 3155 3155 3155 3158 3158 3159 3159 3159 3160 3161 3161 3163 3161 3160 3163 3166 3167 3167 3167 3170 3172 3173 3176 3180 3181 3182 3182 3182 3183 3183 3184 3185 3186 3187 3188 3189
3120 3121 3121 3122 3122 3121 3122 3125 3125 3124 3124 3125 3126 3127 3127 3128 3128 3127 3130 3125 3111 3105 3107 3107 3109 3112 3114 3117 3119 3121 3124 3125 3126 3128 3131 3132 3134 3136 3136 3138 3142 3144 3144 3144 3144 3146 3147 3147 3148 3151 3152 3151 3152 3153 3154 3155 3157 3158 3158 3158 3160 3161 3160 3161 3161 3161 3163 3164 3164 3164 3164 3166 3168 3170 3173 3176 3177 3177 3177 3178 3180 3181 3182 3182 3183 3184 3185 3186
3117 3118 3118 3118 3119 3118 3119 3122 3122 3122 3123 3123 3124 3125 3126 3126 3126 3127 3129 3121 3108 3106 3108 3107 3108 3111 3113 3116 3118 3120 3122 3124 3125 3127 3129 3131 3133 3135 3135 3136 3139 3142 3143 3143 3143 3143 3144 3145 3146 3147 3149 3150 3151 3151 3152 3154 3156 3157 3157 3157 3158 3158 3159 3160 3161 3161 3162 3163 3162 3163 3162 3162 3164 3166 3166 3168 3169 3169 3171 3174 3177 3178 3179 3179 3180 3181 3182 3184
3115 3115 3114 3115 3116 3116 3117 3120 3119 3120 3121 3122 3122 3123 3124 3124 3125 3125 3122 3114 3108 3107 3107 3107 3108 3110 3112 3114 3116 3118 3119 3122 3124 3125 3126 3128 3131 3133 3133 3134 3135 3137 3140 3140 3140 3141 3141 3143 3143 3144 3146 3148 3148 3149 3150 3152 3154 3155 3155 3156 3156 3155 3157 3157 3157 3158 3160 3161 3161 3162 3162 3161 3160 3161 3161 3161 3161 3163 3166 3169 3171 3173 3175 3176 3178 3180 3181 3182
3112 3112 3111 3111 3112 3113 3116 3117 3116 3118 3119 3120 3120 3121 3122 3122 3122 3120 3115 3112 3110 3105 3104 3106 3107 3109 3112 3114 3115 3115 3117 3119 3120 3122 3123 3124 3127 3129 3129 3130 3131 3133 3134 3135 3138 3138 3137 3138 3141 3142 3143 3144 3145 3146 3147 3149 3151 3152 3152 3154 3155 3155 3156 3156 3155 3156 3157 3158 3158 3159 3160 3158 3156 3156 3156 3157 3159 3160 3162 3164 3166 3169 3172 3174 3176 3178 3179 3180
3109 3108 3108 3108 3108 3110 3114 3114 3114 3115 3117 3117 3118 3119 3120 3120 3117 3114 3112 3111 3108 3102 3103 3106 3105 3107 3110 3112 3113 3114 3115 3117 3117 3119 3121 3122 3125 3127 3127 3128 3129 3131 3132 3133 3135 3135 3135 3135 3137 3139 3140 3141 3142 3143 3143 3145 3148 3149 3150 3151 3152 3154 3156 3158 3157 3157 3157 3156 3155 3157 3159 3156 3154 3153 3152 3153 3155 3157 3158 3161 3164 3168 3170 3172 3174 3176 3178 3179
3105 3104 3104 3105 3105 3107 3111 3111 3111 3112 3114 3115 3115 3116 3117 3115 3112 3111 3110 3107 3103 3100 3103 3106 3105 3106 3108 3109 3111 3112 3114 3115 3115 3117 3119 3119 3122 3124 3125 3126 3128 3129 3131 3132 3132 3132 3132 3131 3131 3134 3136 3137 3139 3140 3142 3144 3146 3147 3148 3149 3149 3150 3153 3156 3156 3156 3157 3155 3154 3156 3156 3154 3152 3151 3150 3150 3151 3154 3158 3161 3163 3166 3168 3169 3172 3175 3176 3177
3101 3100 3100 3102 3103 3104 3107 3108 3108 3109 3111 3112 3113 3113 3111 3109 3108 3109 3106 3102 3100 3100 3102 3104 3105 3105 3105 3107 3109 3110 3111 3112 3113 3114 3115 3116 3117 3121 3123 3123 3125 3127 3128 3129 3129 3129 3130 3128 3128 3131 3133 3134 3137 3140 3141 3143 3143 3144 3146 3147 3146 3147 3149 3151 3153 3153 3154 3154 3153 3154 3153 3151 3151 3150 3148 3149 3150 3153 3158 3160 3161 3164 3166 3168 3171 3173 3175 3175
3097 3097 3097 3098 3100 3102 3103 3104 3105 3106 3107 3109 3109 3107 3105 3104 3105 3105 3102 3099 3100 3102 3103 3102 3102 3102 3102 3104 3107 3108 3109 3110 3111 3111 3112 3113 3115 3117 3120 3121 3123 3124 3124 3125 3127 3126 3127 3126 3126 3128 3130 3132 3134 3137 3138 3139 3140 3141 3142 3143 3144 3147 3149 3150 3151 3150 3152 3154 3153 3151 3150 3149 3150 3149 3147 3147 3150 3153 3156 3158 3160 3163 3165 3167 3169 3171 3172 3173
3094 3093 3094 3095 3098 3099 3099 3100 3102 3103 3104 3105 3104 3102 3101 3101 3102 3101 3098 3098 3100 3102 3103 3101 3099 3098 3099 3100 3103 3105 3106 3107 3108 3108 3108 3110 3111 3114 3117 3120 3121 3121 3121 3123 3125 3124 3124 3125 3125 3126 3128 3130 3132 3134 3135 3136 3138 3138 3138 3140 3145 3148 3148 3149 3150 3149 3150 3153 3151 3148 3148 3148 3148 3148 3146 3145 3147 3152 3154 3156 3159 3161 3163 3165 3167 3168 3169 3171
3090 3090 3091 3093 3094 3094 3095 3096 3098 3099 3101 3101 3099 3098 3099 3098 3099 3098 3096 3098 3099 3100 3101 3100 3098 3096 3096 3097 3099 3101 3103 3103 3104 3106 3106 3106 3107 3110 3114 3117 3118 3120 3121 3121 3122 3123 3123 3123 3123 3124 3125 3128 3131 3132 3132 3133 3135 3136 3136 3138 3142 3145 3145 3146 3148 3149 3150 3151 3149 3146 3145 3145 3145 3146 3145 3144 3145 3149 3152 3154 3156 3158 3160 3162 3165 3166 3168 3169
3087 3088 3089 3090 3090 3090 3092 3094 3095 3096 3097 3096 3094 3094 3095 3095 3095 3095 3095 3098 3098 3098 3099 3097 3096 3096 3094 3095 3096 3098 3099 3100 3102 3104 3104 3103 3104 3106 3110 3113 3114 3116 3118 3119 3119 3120 3121 3120 3119 3120 3122 3124 3127 3128 3128 3130 3133 3135 3136 3136 3138 3140 3141 3142 3144 3145 3145 3147 3147 3146 3144 3144 3143 3143 3144 3144 3144 3147 3150 3152 3154 3156 3158 3160 3163 3165 3167 3168
3085 3086 3088 3088 3087 3087 3090 3091 3092 3092 3091 3090 3090 3091 3092 3093 3092 3092 3095 3097 3097 3097 3097 3094 3094 3095 3092 3091 3093 3094 3095 3097 3099 3101 3101 3101 3102 3103 3105 3109 3111 3113 3115 3116 3117 3118 3119 3118 3117 3118 3119 3121 3121 3121 3124 3127 3130 3132 3133 3134 3135 3136 3137 3139 3139 3139 3140 3141 3143 3145 3145 3144 3142 3142 3143 3143 3145 3148 3151 3153 3154 3156 3158 3160 3162 3164 3166 3167
3084 3085 3086 3085 3086 3087 3088 3088 3087 3088 3087 3087 3088 3089 3090 3091 3090 3091 3093 3096 3096 3096 3096 3093 3091 3092 3091 3090 3091 3092 3093 3094 3095 3097 3098 3098 3100 3100 3102 3105 3107 3109 3111 3112 3113 3115 3116 3116 3116 3116 3116 3117 3117 3118 3123 3126 3127 3129 3130 3131 3133 3134 3135 3136 3136 3136 3137 3138 3139 3143 3146 3145 3143 3143 3144 3144 3146 3149 3152 3154 3155 3156 3158 3160 3162 3163 3164 3165
3082 3084 3083 3082 3084 3086 3086 3085 3085 3086 3085 3084 3086 3088 3089 3090 3089 3089 3090 3093 3094 3093 3094 3092 3090 3089 3089 3087 3087 3089 3090 3090 3092 3093 3093 3094 3096 3097 3099 3101 3103 3106 3107 3107 3109 3111 3114 3114 3115 3114 3114 3115 3117 3118 3120 3124 3126 3128 3128 3129 3130 3132 3132 3133 3133 3134 3134 3136 3137 3140 3144 3145 3145 3145 3145 3145 3147 3149 3152 3154 3155 3156 3158 3159 3161 3162 3163 3164
3080 3082 3082 3080 3081 3083 3085 3084 3084 3084 3083 3083 3086 3087 3088 3089 3087 3087 3088 3090 3090 3090 3090 3090 3088 3087 3087 3085 3084 3085 3087 3088 3088 3090 3091 3092 3093 3094 3096 3098 3099 3102 3104 3104 3105 3109 3111 3111 3111 3112 3112 3114 3116 3116 3117 3120 3124 3125 3126 3127 3128 3129 3130 3131 3132 3132 3132 3134 3135 3138 3142 3145 3145 3146 3146 3147 3148 3149 3151 3153 3154 3155 3157 3158 3159 3160 3161 3162
3078 3080 3081 3080 3079 3080 3081 3081 3082 3083 3083 3084 3086 3085 3086 3087 3086 3085 3086 3087 3087 3088 3087 3087 3086 3086 3085 3085 3084 3084 3086 3087 3086 3087 3090 3090 3089 3091 3093 3094 3096 3098 3099 3100 3102 3105 3105 3106 3108 3109 3109 3111 3113 3114 3114 3116 3119 3121 3123 3125 3126 3127 3128 3130 3131 3131 3131 3132 3133 3136 3140 3143 3143 3145 3146 3146 3147 3149 3151 3152 3153 3154 3155 3157 3158 3159 3159 3160
3076 3077 3079 3080 3079 3078 3078 3079 3080 3082 3083 3084 3084 3084 3084 3084 3083 3083 3084 3084 3084 3084 3084 3084 3084 3084 3084 3084 3084 3083 3085 3088 3086 3084 3085 3088 3088 3089 3090 3091 3092 3094 3096 3098 3100 3102 3102 3102 3103 3105 3107 3108 3109 3109 3111 3113 3116 3118 3120 3122 3123 3125 3126 3127 3129 3130 3130 3131 3131 3133 3137 3140 3142 3143 3144 3144 3145 3147 3149 3150 3151 3152 3154 3155 3156 3157 3157 3158
3074 3075 3076 3076 3076 3076 3076 3078 3079 3080 3080 3082 3082 3082 3083 3081 3080 3081 3082 3081 3081 3081 3081 3082 3081 3081 3081 3081 3082 3082 3083 3086 3086 3083 3082 3084 3085 3086 3087 3088 3089 3090 3093 3096 3097 3099 3099 3099 3100 3101 3103 3105 3106 3107 3109 3112 3114 3115 3117 3118 3120 3121 3124 3125 3126 3127 3129 3130 3130 3130 3133 3137 3139 3140 3141 3142 3143 3144 3146 3148 3148 3150 3151 3153 3154 3155 3155 3156
3072 3073 3072 3071 3071 3072 3074 3076 3078 3078 3079 3080 3079 3078 3079 3079 3078 3079 3079 3079 3078 3078 3079 3079 3079 3079 3079 3079 3080 3081 3082 3083 3083 3082 3082 3081 3080 3078 3078 3081 3086 3088 3090 3092 3094 3095 3095 3095 3097 3099 3100 3103 3105 3106 3107 3110 3111 3113 3114 3116 3118 3119 3121 3122 3122 3123 3126 3128 3127 3128 3130 3132 3133 3135 3137 3138 3140 3141 3143 3145 3146 3147 3148 3150 3151 3152 3153 3154
3069 3069 3069 3069 3069 3070 3070 3072 3074 3075 3076 3077 3077 3076 3076 3076 3076 3076 3076 3077 3077 3077 3077 3076 3076 3077 3078 3078 3080 3080 3080 3081 3081 3081 3080 3078 3077 3076 3073 3074 3079 3083 3086 3088 3090 3092 3092 3092 3094 3096 3098 3100 3102 3103 3106 3109 3110 3111 3113 3114 3116 3117 3118 3119 3120 3122 3123 3124 3124 3125 3125 3126 3128 3130 3132 3134 3136 3138 3140 3142 3144 3145 3146 3147 3148 3149 3150 3151
3067 3066 3067 3067 3067 3068 3068 3069 3071 3071 3072 3074 3074 3073 3073 3073 3073 3073 3074 3075 3074 3074 3075 3074 3074 3076 3077 3078 3079 3079 3079 3080 3078 3078 3077 3074 3074 3076 3076 3075 3075 3076 3081 3085 3086 3088 3089 3089 3091 3094 3095 3098 3099 3100 3103 3106 3108 3110 3110 3111 3113 3116 3117 3118 3119 3120 3122 3122 3123 3123 3123 3123 3125 3127 3128 3130 3132 3134 3136 3138 3140 3142 3143 3144 3146 3146 3147 3148
3065 3064 3064 3065 3065 3065 3067 3068 3069 3070 3071 3071 3071 3071 3072 3072 3072 3072 3072 3073 3072 3072 3073 3073 3073 3074 3075 3076 3077 3077 3077 3077 3076 3076 3074 3072 3073 3075 3077 3078 3076 3073 3076 3080 3083 3084 3086 3087 3089 3092 3094 3095 3098 3099 3100 3102 3105 3108 3109 3109 3111 3114 3115 3116 3117 3118 3119 3119 3120 3121 3122 3122 3123 3125 3127 3128 3131 3132 3133 3135 3137 3138 3140 3142 3143 3144 3145 3145
3063 3062 3062 3062 3063 3064 3065 3066 3067 3068 3069 3070 3070 3070 3070 3069 3070 3070 3069 3070 3070 3070 3072 3073 3073 3073 3073 3075 3076 3075 3073 3073 3074 3074 3072 3070 3072 3074 3077 3078 3077 3074 3075 3078 3079 3080 3082 3085 3088 3090 3092 3093 3096 3099 3099 3101 3104 3105 3107 3109 3110 3112 3113 3114 3115 3115 3116 3116 3116 3117 3117 3119 3122 3124 3126 3127 3130 3131 3132 3133 3134 3136 3137 3139 3141 3142 3143 3143
3061 3060 3060 3060 3060 3062 3063 3064 3065 3065 3066 3067 3068 3067 3065 3065 3066 3066 3065 3065 3067 3069 3070 3070 3070 3071 3071 3072 3072 3071 3070 3070 3071 3073 3072 3070 3071 3074 3076 3077 3076 3077 3078 3078 3076 3076 3079 3082 3085 3088 3090 3092 3095 3098 3100 3102 3103 3103 3105 3108 3109 3110 3110 3110 3111 3113 3113 3114 3114 3112 3113 3116 3120 3123 3124 3125 3127 3128 3129 3130 3131 3132 3134 3136 3138 3140 3141 3141